Harlan, KY

11:14 PM EST on November 19, 2017 (GMT -0500)
Harlan

Weather History for KI35 - May, 2013

Change the Weather History Date:

Thursday, May 23, 2013

  Actual Average (KLOZ) Record (KLOZ)
Temperature  
Mean Temperature 68 °F -  
Max Temperature 77 °F 76 °F 88 °F (1987)
Min Temperature 59 °F 55 °F 36 °F (1963)
Cooling Degree Days 3    
Growing Degree Days 18 (Base 50)    
Moisture  
Dew Point 59 °F    
Average Humidity 79    
Maximum Humidity 94    
Minimum Humidity 47    
Precipitation  
Precipitation 0.00 in - - ()
Sea Level Pressure  
Sea Level Pressure 29.95 in    
Wind  
Wind Speed 3 mph (West)    
Max Wind Speed 15 mph    
Max Gust Speed 29 mph    
Visibility 7 miles    
Events      
Averages and records for this station are not official NWS values.
T = Trace of Precipitation, MM = Missing Value Source: NWS Daily Summary

Daily Weather History Graph

Daily Weather History Graph

Search for Another Location

Airport or City:

Trip Planner

Search our weather history database for the weather conditions in past years. The results will help you decide how hot, cold, wet, or windy it might be!

Date:

Astronomy

May. 23, 2013 Rise Set
Actual Time 6:19 AM EDT 8:40 PM EDT
Civil Twilight 5:50 AM EDT 9:10 PM EDT
Nautical Twilight 5:13 AM EDT 9:47 PM EDT
Astronomical Twilight 4:34 AM EDT 10:27 PM EDT
Moon 7:13 PM EDT (5/23) 5:01 AM EDT (5/23)
Length of Visible Light 15h 20m
Length of Day
14h 21m
Waxing Gibbous, 97% of the Moon is Illuminated
May 23
Waxing Gibbous
May 25
Full
May 31
Last Quarter
Jun 8
New
Jun 16
First Quarter

Hourly Weather History & Observations

Time (EDT) Temp. Dew Point Humidity Pressure Visibility Wind Dir Wind Speed Gust Speed Precip Events Conditions
12:15 AM 62.6 °F 60.8 °F 94% 29.94 in 5.0 mi ENE 4.6 mph - N/A   Overcast
12:35 AM 62.6 °F 60.8 °F 94% 29.94 in 7.0 mi Calm Calm - N/A   Overcast
12:55 AM 62.6 °F 60.8 °F 94% 29.94 in 3.0 mi Calm Calm - N/A   Overcast
1:15 AM 62.6 °F 60.8 °F 94% 29.93 in 5.0 mi ENE 3.5 mph - N/A   Overcast
1:35 AM 62.6 °F 60.8 °F 94% 29.93 in 7.0 mi Calm Calm - N/A   Overcast
1:55 AM 62.6 °F 60.8 °F 94% 29.93 in 4.0 mi Calm Calm - N/A   Mostly Cloudy
2:15 AM 62.6 °F 60.8 °F 94% 29.93 in 7.0 mi Calm Calm - N/A   Overcast
2:35 AM 62.6 °F 60.8 °F 94% 29.93 in 4.0 mi Calm Calm - N/A   Overcast
2:55 AM 62.6 °F 60.8 °F 94% 29.92 in 0.5 mi Calm Calm - N/A   Overcast
3:15 AM 62.6 °F 60.8 °F 94% 29.92 in 0.5 mi Calm Calm - N/A   Overcast
3:35 AM 62.6 °F 60.8 °F 94% 29.92 in 0.2 mi Calm Calm - N/A   Overcast
3:55 AM 62.6 °F 60.8 °F 94% 29.93 in 0.2 mi Calm Calm - N/A   Overcast
4:15 AM 62.6 °F 60.8 °F 94% 29.93 in 0.2 mi Calm Calm - N/A   Overcast
4:35 AM 62.6 °F 60.8 °F 94% 29.93 in 0.2 mi Calm Calm - N/A   Overcast
4:55 AM 62.6 °F 60.8 °F 94% 29.93 in 0.5 mi Calm Calm - N/A   Overcast
5:15 AM 62.6 °F 60.8 °F 94% 29.94 in 0.2 mi Calm Calm - N/A   Overcast
5:35 AM 62.6 °F 60.8 °F 94% 29.94 in 0.5 mi Calm Calm - N/A   Overcast
5:55 AM 62.6 °F 60.8 °F 94% 29.94 in 0.2 mi Calm Calm - N/A   Overcast
6:15 AM 62.6 °F 60.8 °F 94% 29.95 in 0.2 mi Calm Calm - N/A   Overcast
6:35 AM 62.6 °F 60.8 °F 94% 29.95 in 0.2 mi Calm Calm - N/A   Overcast
6:55 AM 62.6 °F 60.8 °F 94% 29.96 in 0.2 mi Calm Calm - N/A   Overcast
7:15 AM 62.6 °F 60.8 °F 94% 29.96 in 1.8 mi Calm Calm - N/A   Overcast
7:35 AM 62.6 °F 60.8 °F 94% 29.97 in 3.0 mi Calm Calm - N/A   Overcast
7:55 AM 62.6 °F 60.8 °F 94% 29.97 in 2.0 mi Calm Calm - N/A   Overcast
8:15 AM 62.6 °F 60.8 °F 94% 29.97 in 4.0 mi Calm Calm - N/A   Overcast
8:35 AM 62.6 °F 60.8 °F 94% 29.97 in 7.0 mi Calm Calm - N/A   Overcast
8:55 AM 64.4 °F 62.6 °F 94% 29.97 in 10.0 mi Calm Calm - N/A   Mostly Cloudy
9:15 AM 64.4 °F 62.6 °F 94% 29.98 in 10.0 mi Calm Calm - N/A   Mostly Cloudy
9:35 AM 68.0 °F 62.6 °F 83% 29.98 in 10.0 mi WNW 4.6 mph - N/A   Mostly Cloudy
9:55 AM 69.8 °F 62.6 °F 78% 29.97 in 10.0 mi WSW 3.5 mph - N/A   Mostly Cloudy
10:15 AM 69.8 °F 60.8 °F 73% 29.97 in 10.0 mi West 4.6 mph - N/A   Mostly Cloudy
10:35 AM 71.6 °F 60.8 °F 69% 29.96 in 10.0 mi WSW 3.5 mph - N/A   Overcast
10:55 AM 69.8 °F 59.0 °F 68% 29.96 in 10.0 mi WSW 4.6 mph - N/A   Overcast
11:15 AM 71.6 °F 60.8 °F 69% 29.96 in 10.0 mi West 4.6 mph - N/A   Mostly Cloudy
11:35 AM 71.6 °F 60.8 °F 69% 29.96 in 10.0 mi SSW 3.5 mph - N/A   Mostly Cloudy
11:55 AM 71.6 °F 59.0 °F 64% 29.96 in 10.0 mi WSW 5.8 mph - N/A   Mostly Cloudy
12:15 PM 75.2 °F 57.2 °F 53% 29.95 in 10.0 mi WSW 6.9 mph - N/A   Mostly Cloudy
12:35 PM 73.4 °F 57.2 °F 57% 29.94 in 10.0 mi West 3.5 mph - N/A   Mostly Cloudy
12:55 PM 71.6 °F 57.2 °F 60% 29.94 in 10.0 mi West 6.9 mph - N/A   Mostly Cloudy
1:15 PM 73.4 °F 57.2 °F 57% 29.94 in 10.0 mi West 10.4 mph - N/A   Scattered Clouds
1:35 PM 69.8 °F 62.6 °F 78% 29.93 in 10.0 mi NW 8.1 mph - N/A   Mostly Cloudy
1:55 PM 71.6 °F 60.8 °F 69% 29.92 in 10.0 mi SSW 3.5 mph - N/A   Scattered Clouds
2:15 PM 75.2 °F 60.8 °F 61% 29.91 in 10.0 mi SSW 5.8 mph - N/A   Clear
2:35 PM 77.0 °F 60.8 °F 57% 29.91 in 10.0 mi South 5.8 mph - N/A   Clear
2:55 PM 73.4 °F 59.0 °F 61% 29.91 in 10.0 mi NW 13.8 mph 18.4 mph N/A   Mostly Cloudy
3:15 PM 73.4 °F 59.0 °F 61% 29.91 in 10.0 mi WNW 10.4 mph - N/A   Overcast
3:35 PM 77.0 °F 59.0 °F 54% 29.90 in 10.0 mi WNW 12.7 mph 19.6 mph N/A   Scattered Clouds
3:55 PM 75.2 °F 55.4 °F 50% 29.91 in 10.0 mi West 13.8 mph 25.3 mph N/A   Scattered Clouds
4:15 PM 73.4 °F 55.4 °F 53% 29.91 in 10.0 mi West 10.4 mph 19.6 mph N/A   Mostly Cloudy
4:35 PM 77.0 °F 55.4 °F 47% 29.90 in 10.0 mi WSW 10.4 mph 18.4 mph N/A   Scattered Clouds
4:55 PM 71.6 °F 55.4 °F 57% 29.91 in 10.0 mi West 11.5 mph 21.9 mph N/A   Mostly Cloudy
5:15 PM 71.6 °F 55.4 °F 57% 29.91 in 10.0 mi WNW 9.2 mph 21.9 mph N/A   Overcast
5:35 PM 66.2 °F 57.2 °F 73% 29.94 in 3.0 mi West 11.5 mph 26.5 mph N/A   Overcast
5:55 PM 64.4 °F 60.8 °F 88% 29.94 in 10.0 mi WSW 3.5 mph - N/A   Overcast
6:15 PM 64.4 °F 60.8 °F 88% 29.94 in 10.0 mi WSW 4.6 mph - N/A   Scattered Clouds
6:35 PM 64.4 °F 60.8 °F 88% 29.95 in 10.0 mi West 5.8 mph - N/A   Mostly Cloudy
6:55 PM 64.4 °F 60.8 °F 88% 29.95 in 10.0 mi West 8.1 mph - N/A   Mostly Cloudy
7:15 PM 64.4 °F 59.0 °F 83% 29.96 in 10.0 mi West 8.1 mph - N/A   Overcast
7:35 PM 64.4 °F 53.6 °F 68% 29.97 in 10.0 mi WNW 15.0 mph 28.8 mph N/A   Overcast
7:55 PM 62.6 °F 53.6 °F 72% 29.97 in 10.0 mi WNW 15.0 mph 23.0 mph N/A   Overcast
8:15 PM 62.6 °F 53.6 °F 72% 29.98 in 10.0 mi WNW 11.5 mph 18.4 mph N/A   Overcast
8:35 PM 62.6 °F 53.6 °F 72% 29.98 in 10.0 mi WNW 6.9 mph - N/A   Overcast
8:55 PM 62.6 °F 53.6 °F 72% 29.99 in 10.0 mi West 3.5 mph - N/A   Overcast
9:15 PM 60.8 °F 51.8 °F 72% 29.99 in 10.0 mi NW 6.9 mph - N/A   Overcast
9:35 PM 60.8 °F 53.6 °F 77% 30.00 in 10.0 mi NNW 5.8 mph - N/A   Overcast
9:55 PM 60.8 °F 51.8 °F 72% 30.01 in 10.0 mi WNW 9.2 mph - N/A   Overcast
10:15 PM 60.8 °F 51.8 °F 72% 30.01 in 10.0 mi WNW 10.4 mph 16.1 mph N/A   Overcast
10:35 PM 60.8 °F 51.8 °F 72% 30.02 in 10.0 mi WNW 10.4 mph 16.1 mph N/A   Overcast
10:55 PM 60.8 °F 51.8 °F 72% 30.02 in 10.0 mi NNW 9.2 mph - N/A   Overcast
11:15 PM 59.0 °F 51.8 °F 77% 30.03 in 10.0 mi NNW 6.9 mph - N/A   Overcast
11:35 PM 59.0 °F 53.6 °F 82% 30.03 in 10.0 mi West 3.5 mph - N/A   Overcast
11:55 PM 59.0 °F 53.6 °F 82% 30.03 in 10.0 mi West 3.5 mph - N/A   Overcast